Location: Innsbruck
(47.2657°N, 11.3914°E)
Time: 19:59:53
(UTC+01:00)

BEESAT 3 - Pass Details

Date: 16 December 2021
Orbit: 472 x 512 km, 64.9° (Epoch: 23 January)

Event Time Altitude Azimuth Distance (km) Brightness Sun altitude
Rises 18:13:21 0° 269° (W) 2,575 ? -17.4°
Reaches altitude 10° 18:16:22 10° 296° (WNW) 1,707 ? -17.9°
Maximum altitude 18:18:27 14° 329° (NNW) 1,475 ? -18.3°
Enters shadow 18:20:29 10° 2° (N) 1,708 ? -18.6°
